Probability
0 0 0 0 0 0 0 0 0 0 0 0 0 0 0 0 0 0 0 0 0 0 0 0 0 0 0 0 0 0 0 0 0 0 0 0 0 0 0 0 0 0 0 0 0 0 0 0 0
0 0 0 0 0 0 0 0 0 0 0 0 0 0 0 0 0 0 0 0 0 0 0 0 0 0 0 0 0 0 0 0 0 0 0 0 0 0 0 0 0 0 0 0 0 0 0 0 0
0 0 0 0 0 0 0 0 0 0 0 0 0 0 0 0 0 0 0 0 0 0 0 0 0 0 0 0 0 0 0 0 0 0 0 0 0 0 0 0 0 0 0 0 0 0 0 0 0
0 0 0 0 0 0 0 0 0 0 0 0 0 0 0 0 0 0 0 0 0 0 0 0 0 0 0 0 0 0 0 0 0 0 0 0 0 0 0 0 0 0 0 0 0 0 0 0 0
0 0 0 0 0 0 0 0 0 0 0 0 0 0 0 0 0 0 0 0 0 0 0 0 0 0 0 0 0 0 0 0 0 0 0 0 0 0 0 0 0 0 0 0 0 0 0 0 0
0 0 0 0 0 0 0 0 0 0 0 0 0 0 0 0 0 0 0 0 0 0 0 0 0 0 0 0 0 0 0 0 0 0 0 0 0 0 0 0 0 0 0 0 0 0 0 0 0
0 0 0 0 0 0 0 0 0 0 0 0 0 0 0 0 0 0 0 0 0 0 0 0 0 0 0 0 0 0 0 0 0 0 0 0 0 0 0 0 0 0 0 0 0 0 0 0 0
0 0 0 0 0 0 0 0 0 0 0 0 0 0 0 0 0 0 0 0 0 0 0 0 0 0 0 0 0 0 0 0 0 0 0 0 0 0 0 0 0 0 0 0 0 0 0 0 0
0 0 0 0 0 0 0 0 0 0 0 0 0 0 0 0 0 0 0 0 0 0 0 0 0 0 0 0 0 0 0 0 0 0 0 0 0 0 0 0 0 0 0 0 0 0 0 0 0
0 0 0 0 0 0 0 0 0 0 0 0 0 0 0 0 0 0 0 0 0 0 0 0 0 0 0 0 0 0 0 0 0 0 0 0 0 0 0 0 0 0 0 0 0 0 0 0 0
0 0 0 0 0 0 0 0 0 0 0 0 0 0 0 0 0 0 0 0 0 0 0 0 0 0 0 0 0 0 0 0 0 0 0 0 0 0 0 0 0 0 0 0 0 0 0 0 0
0 0 0 0 0 0 0 0 0 0 0 0 0 0 0 0 0 0 0 0 0 0 0 0 0 0 0 0 0 0 0 0 0 0 0 0 0 0 0 0 0 0 0 0 0 0 0 0 0
0 0 0 0 0 0 0 0 0 0 0 0 0 0 0 0 0 0 0 0 0 0 0 0 0 0 0 0 0 0 0 0 0 0 0 0 0 0 0 0 0 0 0 0 0 0 0 0 0
0 0 0 0 0 0 0 0 0 0 0 0 0 0 0 0 0 0 0 0 0 0 0 0 0 0 0 0 0 0 0 0 0 0 0 0 0 0 0 0 0 0 0 0 0 0 0 0 0
0 0 0 0 0 0 0 0 0 0 0 0 0 0 0 0 0 0 0 0 0 0 0 0 0 0 0 0 0 0 0 0 0 0 0 0 0 0 0 0 0 0 0 0 0 0 0 0 0
0 0 0 0 0 0 0 0 0 0 0 0 0 0 0 0 0 0 0 0 0 0 0 0 0 0 0 0 0 0 0 0 0 0 0 0 0 0 0 0 0 0 0 0 0 0 0 0 0
0 0 0 0 0 0 0 0 0 0 0 0 0 0 0 0 0 0 0 0 0 0 0 0 0 0 0 0 0 0 0 0 0 0 0 0 0 0 0 0 0 0 0 0 0 0 0 0 0
0 0 0 0 0 0 0 0 0 0 0 0 0 0 0 0 0 0 0 0 0 0 0 0 0 0 0 0 0 0 0 0 0 0 0 0 0 0 0 0 0 0 0 0 0 0 0 0 0
0 0 0 0 0 0 0 0 0 0 0 0 0 0 0 0 0 0 0 0 0 0 0 0 0 0 0 0 0 0 0 0 0 0 0 0 0 0 0 0 0 0 0 0 0 0 0 0 0
0 0 0 0 0 0 0 0 0 0 0 0 0 0 0 0 0 0 0 0 0 0 0 0 0 0 0 0 0 0 0 0 0 0 0 0 0 0 0 0 0 0 0 0 0 0 0 0 0
0 0 0 0 0 0 0 0 0 0 0 0 0 0 0 0 0 0 0 0 0 0 0 0 0 0 0 0 0 0 0 0 0 0 0 0 0 0 0 0 0 0 0 0 0 0 0 0 0
0 0 0 0 0 0 0 0 0 0 0 0 0 0 0 0 0 0 0 0 0 0 0 0 0 0 0 0 0 0 0 0 0 0 0 0 0 0 0 0 0 0 0 0 0 0 0 0 0
0 0 0 0 0 0 0 0 0 0 0 0 0 0 0 0 0 0 0 0 0 0 0 0 0 0 0 0 0 0 0 0 0 0 0 0 0 0 0 0 0 0 0 0 0 0 0 0 0
0 0 0 0 0 0 0 0 0 0 0 0 0 0 0 0 0 0 0 0 0 0 0 0 0 0 0 0 0 0 0 0 0 0 0 0 0 0 0 0 0 0 0 0 0 0 0 0 0
0 0 0 0 0 0 0 0 0 0 0 0 0 0 0 0 0 0 0 0 0 0 0 0 0 0 0 0 0 0 0 0 0 0 0 0 0 0 0 0 0 0 0 0 0 0 0 0 0
0 0 0 0 0 0 0 0 0 0 0 0 0 0 0 0 0 0 0 0 0 0 0 0 0 0 0 0 0 0 0 0 0 0 0 0 0 0 0 0 0 0 0 0 0 0 0 0 0
0 0 0 0 0 0 0 0 0 0 0 0 0 0 0 0 0 0 0 0 0 0 0 0 0 0 0 0 0 0 0 0 0 0 0 0 0 0 0 0 0 0 0 0 0 0 0 0 0
0 0 0 0 0 0 0 0 0 0 0 0 0 0 0 0 0 0 0 0 0 0 0 0 0 0 0 0 0 0 0 0 0 0 0 0 0 0 0 0 0 0 0 0 0 0 0 0 0
0 0 0 0 0 0 0 0 0 0 0 0 0 0 0 0 0 0 0 0 0 0 0 0 0 0 0 0 0 0 0 0 0 0 0 0 0 0 0 0 0 0 0 0 0 0 0 0 0
0 0 0 0 0 0 0 0 0 0 0 0 0 0 0 0 0 0 0 0 0 0 0 0 0 0 0 0 0 0 0 0 0 0 0 0 0 0 0 0 0 0 0 0 0 0 0 0 0
Wind_Speed
4 2 2 4 7 5 2 4 2 2 3 2 2 4 6 6 7 6 2 8 6 10 14 18 22 20 18 17 15 14 13 12 11 10 10 9 9 9 9 8 8 9 9 9 10 10 10 11 11
1 1 5 6 6 1 4 4 4 5 3 0 1 1 2 5 4 4 2 7 8 11 13 12 21 20 19 17 16 15 14 12 12 11 10 9 9 8 8 8 7 8 8 8 9 9 9 9 10
1 3 5 5 4 4 4 4 5 3 0 1 1 2 3 5 3 3 3 9 8 11 12 12 23 21 19 18 17 15 14 13 12 11 10 9 9 8 8 7 7 7 7 7 7 8 8 8 9
3 5 6 5 2 4 5 5 3 2 1 1 1 3 5 3 2 1 5 10 10 10 10 11 23 21 20 18 17 16 15 14 13 12 11 10 9 8 8 7 7 7 6 6 6 6 6 7 7
4 5 5 2 3 4 4 5 2 3 2 1 2 3 6 2 2 3 7 10 11 10 9 9 21 21 20 19 18 17 16 15 13 13 11 10 10 9 8 7 7 6 6 5 5 5 5 5 5
5 5 4 2 5 5 5 3 1 2 2 1 3 3 7 1 1 3 6 8 8 9 9 8 21 21 20 19 18 17 16 15 14 13 12 11 11 10 9 8 7 7 6 5 4 4 4 3 3
5 4 3 3 3 5 4 2 3 2 3 4 5 4 6 2 1 4 6 6 6 7 8 7 8 14 19 19 18 18 17 16 15 14 13 12 12 11 10 9 8 7 6 5 4 3 2 2 1
5 5 2 2 3 6 3 1 2 4 5 2 7 6 7 2 3 6 6 5 5 6 7 8 6 7 9 11 18 18 17 17 16 15 14 13 12 11 11 10 9 8 7 6 5 4 3 2 1
4 4 2 4 4 5 3 2 3 1 2 2 5 6 3 3 5 7 5 3 5 8 7 8 7 6 7 8 12 15 16 16 15 13 14 11 4 3 4 7 10 10 9 8 7 6 5 4 2
5 3 6 5 5 4 3 3 3 3 4 4 6 5 2 4 6 8 8 10 12 13 11 9 9 7 7 7 6 6 6 7 7 5 6 4 4 3 3 7 11 11 10 9 9 8 5 2 1
3 5 5 4 4 3 3 4 3 3 7 8 9 7 2 5 7 9 9 10 13 11 11 11 10 7 7 6 5 4 3 4 5 6 5 4 4 3 3 1 3 3 4 1 2 1 1 2 1
2 4 4 4 2 2 4 3 3 6 11 5 4 5 3 7 10 13 13 12 7 7 10 10 9 8 7 6 5 5 4 4 4 5 7 5 3 3 3 3 2 2 1 1 1 1 2 2 2
3 4 3 4 5 5 5 6 5 8 8 5 5 4 5 8 10 10 9 7 7 9 9 10 9 10 7 6 5 5 5 5 5 5 6 7 5 5 4 3 3 3 3 3 3 3 3 4 4
2 4 6 7 5 2 3 3 3 7 4 5 6 6 6 6 8 7 8 9 9 10 9 9 10 10 9 8 7 6 5 5 5 5 7 8 6 6 6 5 5 5 4 4 4 5 5 4 4
2 5 8 3 2 1 1 5 3 4 5 7 8 8 8 6 4 6 8 9 9 7 7 9 10 9 10 10 8 6 5 5 6 6 7 8 7 7 7 6 6 6 5 5 4 4 3 4 5
2 3 4 5 3 2 1 6 4 4 5 6 7 8 8 8 6 5 5 6 6 5 6 8 9 10 11 9 8 5 5 6 6 6 6 9 9 8 8 7 8 7 5 5 5 5 4 6 6
3 2 3 7 3 2 1 8 6 4 4 4 5 7 8 9 11 10 7 3 2 4 5 7 8 9 9 8 6 5 5 6 5 5 6 8 10 10 9 9 8 7 6 6 7 6 5 7 8
2 2 3 5 5 3 4 8 9 5 1 2 4 6 7 9 10 9 10 7 3 1 3 4 5 6 6 5 4 3 4 5 5 6 7 8 9 10 10 8 8 7 6 7 7 8 7 6 7
1 3 6 7 4 3 5 7 8 5 2 3 4 6 7 7 7 8 10 9 8 6 2 1 3 4 4 3 4 4 5 4 4 6 7 9 9 10 11 10 8 8 9 11 10 8 8 7 4
2 3 5 6 2 2 5 6 4 2 2 2 3 5 6 7 10 11 11 11 10 7 5 2 1 2 4 4 3 3 3 3 4 5 7 9 10 11 11 12 10 9 9 10 10 9 6 5 6
4 5 5 4 5 2 4 5 2 2 2 2 3 3 4 5 7 8 9 9 9 9 7 4 2 1 3 3 2 1 1 1 2 4 5 8 10 11 11 12 12 10 11 11 13 12 11 9 7
5 5 4 2 2 4 3 3 3 1 1 0 2 3 4 4 5 6 7 8 8 7 6 6 5 2 0 3 3 4 4 5 6 4 4 6 8 11 12 12 12 12 11 13 13 13 12 11 9
5 1 1 1 2 2 1 1 7 2 4 5 2 0 1 3 4 5 5 5 5 6 6 6 6 5 3 1 2 3 5 6 4 3 5 6 6 9 11 12 11 12 12 13 13 12 13 12 13
3 4 4 4 3 2 2 3 6 4 6 5 4 3 2 1 3 4 4 5 5 6 6 6 6 5 4 2 1 3 6 6 6 6 6 5 4 5 9 10 11 12 11 13 14 13 13 13 14
3 4 4 4 4 4 1 3 9 5 4 6 8 6 3 0 2 3 4 5 6 7 7 6 6 5 5 3 2 3 5 5 7 7 6 6 5 5 7 8 9 10 11 12 12 12 13 15 15
3 5 5 2 3 6 3 6 7 4 4 3 5 4 2 1 1 2 2 3 4 5 6 6 6 5 5 5 4 3 4 3 4 6 5 6 6 7 7 7 8 10 11 12 11 11 13 13 15
5 2 4 5 1 3 6 7 8 1 3 3 4 3 2 1 1 1 2 3 3 4 5 5 5 5 5 5 5 5 4 4 5 6 5 5 6 6 7 7 8 9 10 11 11 10 12 12 14
3 7 5 4 2 4 7 6 5 4 3 3 2 2 2 1 1 2 2 3 3 4 4 5 4 5 5 5 5 4 5 5 5 5 6 7 7 7 7 8 8 9 9 10 10 10 12 13 13
4 3 4 4 4 4 4 8 6 6 6 6 4 3 2 1 0 1 2 3 4 4 5 5 5 5 6 6 5 6 6 6 6 6 7 7 7 7 8 8 8 9 9 9 9 11 12 13 14
5 6 7 5 5 4 3 10 3 3 4 4 3 1 0 1 0 1 2 3 4 5 6 6 6 6 6 6 6 6 7 7 7 7 8 7 8 8 8 8 9 10 10 10 10 12 12 13 14
Wind_Direction
354 18 58 56 54 50 275 258 245 242 243 237 182 166 174 181 180 230 268 158 158 155 170 187 179 178 177 177 175 170 168 165 161 155 147 139 133 124 117 110 104 97 92 86 81 77 73 73 72
8 57 53 61 84 68 276 257 248 232 244 27 80 115 203 246 226 247 233 177 162 159 168 184 179 178 179 179 178 175 174 171 168 163 157 150 146 139 130 122 116 107 100 93 87 83 78 76 77
101 53 81 77 114 181 243 252 249 260 247 156 235 241 230 241 231 244 206 165 153 161 168 184 178 179 181 182 181 179 178 176 174 171 166 162 157 150 143 137 130 120 112 105 96 88 83 81 80
87 50 57 78 192 219 231 268 274 275 300 197 202 279 267 244 238 237 153 156 154 163 169 186 179 181 184 184 184 183 183 183 180 179 176 173 169 163 155 151 142 135 128 119 109 97 89 85 87
61 75 63 35 265 260 254 269 248 221 238 233 178 259 274 255 58 119 149 161 162 164 170 188 182 184 186 187 187 187 187 188 188 186 184 184 179 173 168 164 159 155 149 140 129 115 101 89 89
59 67 84 264 274 282 273 262 182 206 248 244 191 241 263 241 125 155 159 161 162 162 168 183 188 187 189 190 190 191 192 193 194 193 192 192 189 184 181 179 177 175 169 161 150 136 121 106 95
101 101 159 220 273 292 273 182 184 206 246 236 189 210 272 293 135 143 149 145 151 160 169 185 195 191 192 193 194 194 196 198 198 199 199 198 197 196 193 192 191 190 188 182 178 169 154 139 117
117 104 151 236 254 272 271 257 230 205 245 225 165 197 249 327 95 108 114 130 151 168 179 187 200 192 188 192 197 197 199 201 203 203 203 203 203 203 204 200 201 202 204 201 202 204 207 208 217
84 81 233 234 223 258 270 289 282 254 257 252 215 222 246 109 118 113 118 149 175 189 193 192 197 195 184 181 196 198 202 204 205 206 205 203 193 189 206 201 208 213 215 216 218 222 227 231 261
88 154 233 223 209 236 275 259 272 298 286 276 275 262 135 148 163 169 180 188 194 199 197 195 197 194 185 183 187 189 191 195 195 184 191 172 149 166 170 207 213 222 225 227 229 230 239 226 54
150 199 234 245 230 243 272 262 233 229 266 248 257 273 202 186 201 208 208 203 204 200 197 198 197 192 188 185 179 176 175 176 178 173 166 150 148 162 167 173 223 243 254 260 288 320 85 112 159
194 240 231 256 237 233 240 256 250 216 239 265 263 265 217 211 216 217 217 217 204 197 202 199 194 193 194 187 182 176 176 179 178 175 165 157 160 170 170 177 186 181 162 179 179 175 175 190 207
232 268 263 257 275 256 254 249 256 260 278 309 305 295 259 240 234 233 234 231 207 209 203 198 194 196 192 190 188 185 188 186 180 175 177 172 174 182 183 189 191 195 187 193 202 208 214 222 228
275 289 295 285 276 256 249 276 229 281 335 349 353 332 304 269 251 243 237 232 218 215 205 194 197 197 192 196 197 194 188 183 181 185 185 184 184 185 187 194 200 204 200 200 204 211 218 228 230
317 323 320 302 317 299 292 321 243 289 344 1 352 342 337 324 292 256 246 237 227 219 201 194 197 195 197 202 201 196 187 183 192 194 189 192 192 190 193 200 208 211 202 201 207 219 223 237 238
44 17 322 305 339 331 360 292 278 342 11 1 352 352 354 354 347 312 279 252 232 211 194 194 198 197 202 204 202 198 189 194 201 195 193 199 200 195 196 207 217 207 195 198 206 211 220 234 237
21 347 291 302 328 348 339 268 276 342 9 6 0 359 2 7 8 358 347 311 241 200 188 188 197 196 199 201 200 200 195 205 204 198 203 205 206 203 205 216 219 198 199 207 217 212 209 229 237
253 268 277 279 302 333 275 270 296 325 7 56 20 14 16 21 5 355 8 17 35 106 173 187 196 195 184 183 189 200 216 218 212 211 215 208 210 208 212 222 219 198 204 215 216 224 216 225 236
209 239 266 266 283 300 276 287 303 320 88 78 43 28 24 16 357 14 24 29 37 37 38 200 196 189 163 162 183 203 226 223 225 225 222 216 215 212 214 226 219 208 217 224 219 219 224 231 209
212 259 273 289 303 293 304 302 311 25 87 90 66 40 25 15 14 16 22 29 31 27 18 2 261 200 187 181 171 184 197 218 221 224 226 222 221 218 219 224 227 218 223 228 222 212 216 222 185
224 217 242 273 327 7 340 345 16 32 48 50 43 36 31 33 26 16 18 21 24 23 12 6 355 228 198 178 144 118 83 327 264 238 235 230 227 226 227 227 228 225 221 229 227 219 218 228 212
255 233 211 241 332 309 21 310 270 237 288 335 25 22 28 28 33 29 23 20 18 11 11 18 19 29 106 162 172 192 211 236 241 235 239 238 225 228 229 232 230 230 227 231 232 224 222 223 229
214 102 144 197 184 309 345 204 281 246 225 226 217 199 41 37 43 37 27 21 17 13 18 19 28 33 33 118 201 215 240 250 266 266 261 256 242 234 234 233 233 234 233 233 234 230 224 222 229
136 87 69 61 79 315 224 173 275 226 214 207 203 206 197 58 45 35 25 28 21 17 19 19 26 23 17 15 275 237 254 268 281 280 274 270 259 248 241 237 236 238 238 237 236 235 230 230 230
104 82 12 352 7 265 238 205 252 254 236 206 191 196 197 111 52 26 22 21 15 11 8 8 16 8 1 358 326 279 266 267 268 275 276 278 275 265 255 241 240 241 241 242 240 237 236 234 233
167 138 155 230 261 291 303 239 256 291 294 209 168 164 163 119 55 29 24 23 7 1 359 358 359 349 346 345 328 307 287 271 269 271 270 270 268 268 266 252 246 246 245 245 242 240 240 238 236
133 152 154 132 167 278 288 293 304 22 43 99 126 142 184 209 2 14 17 16 1 349 343 340 339 333 333 333 327 320 312 295 286 285 276 271 270 275 273 267 260 256 252 249 246 245 245 242 239
137 141 108 124 180 278 294 281 254 223 195 176 181 210 241 263 348 7 5 351 339 329 322 328 329 319 316 323 320 314 310 301 293 291 289 285 282 279 280 278 271 266 261 256 251 251 250 247 245
127 132 123 121 158 179 272 274 230 209 196 194 211 232 238 228 306 334 327 323 323 324 324 325 326 325 321 320 315 313 308 304 301 291 286 285 284 284 280 278 275 272 267 261 256 254 252 251 251
173 174 151 164 215 188 207 267 285 196 183 177 202 239 181 120 124 311 318 324 326 326 326 325 321 318 311 309 308 305 301 302 300 294 290 288 286 284 279 279 277 274 271 265 259 261 258 253 254